[[{"header":{"parameterUnit":"m.s-1","parameterCategory":1,"la1":30.2991,"la2":30.254,"lo1":-89.0895,"lo2":-89.0444,"dy":0.0017,"dx":0.0017,"nx":28,"ny":28,"refTime":"2024-03-04T03:00:00:Z","depth":0,"parameterNumber":2,"parameterNumberName":"U-component_of_WINDS"},"data":[0,0,0,0,0,0,0,0,0,0,0,0,0,0,0,0,0,0,0,0,0,0,0,0,0,0,0,0,0,0,0,0,0,0,0,0,0,0,0,0,0,0,0,0,0,0,0,0,0,0,0,0,0,0,0,0,0,0,-9.0399,-9.04,0,-9.0501,-9.0502,-9.0503,-9.0409,-9.0405,-9.0402,-9.0398,-9.0492,-9.0498,-9.0504,0,0,0,0,0,0,0,0,0,0,0,0,0,-9.0117,-9.0123,-9.0399,-9.04,-9.0402,-9.05,-9.0502,-9.0503,-9.041,-9.0405,-9.0401,-9.0396,-9.049,-9.0497,-9.0504,0,0,0,0,0,0,0,0,0,0,0,0,0,-9.0231,-9.0125,-9.0399,-9.0367,-9.0365,-9.05,-9.0502,-9.0503,-9.0411,-9.0405,-9.04,-9.0394,-9.0488,-9.0496,-9.0505,-9.0673,0,0,-9.0533,-9.0536,0,0,0,0,0,0,0,0,-9.0225,-9.0241,-9.0371,-9.037,-9.0368,-9.0437,-9.0437,-9.056,-9.0412,-9.0393,-9.0398,-9.0392,-9.0477,-9.0487,-9.0518,-9.0677,-9.0681,-9.0533,-9.0539,-9.0543,-9.0545,0,0,0,0,0,0,0,-9.0217,-9.0237,-9.0439,-9.0372,-9.0371,-9.0346,-9.0356,-9.046,-9.0465,-9.0394,-9.0388,-9.0402,-9.0475,-9.0509,-9.0519,-9.0683,-9.0533,-9.0541,-9.0547,-9.055,-9.0986,-9.0992,0,0,0,0,0,0,-9.0214,-9.0231,-9.0435,-9.0442,-9.0281,-9.0355,-9.0366,-9.042,-9.0464,-9.0465,-9.0407,-9.0397,-9.0497,-9.0509,-9.0522,-9.0721,-9.0543,-9.0551,-9.0556,-9.098,-9.0987,-9.0994,0,0,0,0,0,0,-9.0208,-9.0233,-9.0431,-9.0335,-9.0358,-9.0366,-9.0427,-9.0425,-9.0459,-9.0473,-9.0473,-9.0441,-9.0493,-9.051,-9.0637,-9.0723,-9.0555,-9.0563,-9.0972,-9.0982,-9.0991,-9.112,0,0,0,0,0,0,-9.02,-9.0231,-9.0296,-9.0337,-9.0364,-9.0547,-9.0433,-9.0431,-9.0476,-9.0464,-9.0505,-9.0506,-9.049,-9.0624,-9.0646,-9.0732,-9.057,-9.0964,-9.0977,-9.0988,-9.1108,-9.1132,-9.1153,0,0,0,0,0,-9.0191,-9.0326,-9.03,-9.0325,-9.0446,-9.0552,-9.0567,-9.0548,-9.0483,-9.0547,-9.0557,-9.0505,-9.0712,-9.0638,-9.0662,-9.0752,-9.0959,-9.0973,-9.0987,-9.1098,-9.1128,-9.1153,0,0,0,0,0,0,-9.029,-9.0331,-9.0302,-9.0456,-9.0502,-9.0536,-9.0616,-9.058,-9.0642,-9.0629,-9.06,-9.061,-9.0745,-9.0762,-9.0679,-9.0917,-9.0824,-9.0844,-9.09,-9.0929,-9.0951,-9.0942,-9.0578,0,0,0,0,0,-9.0332,-9.0417,-9.0447,-9.0579,-9.0604,-9.0608,-9.0653,-9.0635,-9.068,-9.0698,-9.0716,-9.076,-9.0834,-9.0883,-9.0953,-9.1112,-9.1118,-9.1186,-9.1209,-9.1228,-9.1243,-9.1328,-9.1357,-9.104,-9.1039,-9.1039,0,0,-9.0414,-9.0447,-9.0502,-9.06,-9.0634,-9.0721,-9.0623,-9.0719,-9.0783,-9.0711,-9.0832,-9.0849,-9.0895,-9.104,-9.1104,-9.1058,-9.1333,-9.1245,-9.126,-9.1265,-9.1345,-9.1375,-9.1402,-9.1049,-9.1047,-9.1046,0,0,-9.0609,-9.0644,-9.0758,-9.0796,-9.085,-9.0852,-9.088,-9.0922,-9.0931,-9.1054,-9.1003,-9.1077,-9.1206,-9.1242,-9.1276,-9.1492,-9.1445,-9.1516,-9.1632,-9.1716,-9.1741,-9.1763,-9.1837,-9.1864,-9.1532,-9.1533,-9.1533,0,-9.0703,-9.0836,-9.0821,-9.0922,-9.0966,-9.0912,-9.1026,-9.1062,-9.1134,-9.1165,-9.1114,-9.1277,-9.1304,-9.1456,-9.1509,-9.154,-9.1569,-9.1508,-9.1739,-9.1761,-9.1781,-9.1851,-9.188,-9.1541,-9.154,-9.1539,-9.1538,0,-9.0949,-9.1042,-9.1127,-9.1204,-9.1258,-9.1365,-9.1364,-9.1421,-9.1401,-9.1408,-9.1535,-9.1567,-9.1642,-9.1678,-9.1657,-9.1828,-9.1797,-9.1744,-9.1648,-9.182,-9.1885,-9.1912,-9.1552,-9.1549,-9.1547,-9.1545,0,0,-9.1201,-9.1274,-9.1305,-9.134,-9.1399,-9.1468,-9.1574,-9.1652,-9.17,-9.1754,-9.1839,-9.1954,-9.1906,-9.1946,-9.1929,-9.2003,-9.217,-9.194,-9.1941,-9.1979,-9.2357,-9.2394,-9.2426,-9.2143,-9.2148,-9.2152,-9.2352,0,-9.1396,-9.1582,-9.1574,-9.1746,-9.1831,-9.1784,-9.1876,-9.1921,-9.1932,-9.2004,-9.2015,-9.2095,-9.2027,-9.2051,-9.2123,-9.2135,-9.2245,-9.2121,-9.2217,-9.2221,-9.2202,-9.246,-9.2498,-9.2686,-9.2378,-9.2383,-9.2386,0,-9.1646,-9.1713,-9.1896,-9.1945,-9.198,-9.2063,-9.2135,-9.2206,-9.2256,-9.2259,-9.2307,-9.228,-9.2385,-9.2293,-9.2435,-9.2351,-9.2392,-9.2404,-9.2411,-9.2414,-9.231,-9.2466,-9.2745,-9.2771,-9.2427,-9.2423,-9.242,0,-9.1808,-9.1945,-9.2071,-9.2103,-9.2164,-9.2224,-9.2251,-9.2297,-9.2346,-9.2409,-9.2439,-9.2513,-9.2552,-9.2609,-9.2601,-9.2536,-9.2746,-9.2653,-9.2748,-9.2748,-9.2788,-9.2785,-9.3073,-9.2824,-9.2823,-9.2823,-9.2822,0,-9.2023,-9.2135,-9.2146,-9.2223,-9.2348,-9.2339,-9.2462,-9.2483,-9.2525,-9.2604,-9.2569,-9.2643,-9.2632,-9.2706,-9.2702,-9.2819,-9.2838,-9.2841,-9.2837,-9.2841,-9.284,-9.2862,-9.2847,-9.283,-9.2829,-9.2827,-9.2826,0,-9.2221,-9.2234,-9.2368,-9.2419,-9.2434,-9.2523,-9.2564,-9.2637,-9.2648,-9.2749,-9.2772,-9.2788,-9.2874,-9.2875,-9.2972,-9.2969,-9.3112,-9.3096,-9.3096,-9.3091,-9.3184,-9.3173,-9.3491,-9.3531,-9.3261,-9.3264,-9.3266,0,-9.2354,-9.244,-9.2502,-9.2555,-9.2588,-9.2672,-9.2723,-9.272,-9.2774,-9.2841,-9.2905,-9.299,-9.3055,-9.3195,-9.3213,-9.3288,-9.327,-9.3378,-9.328,-9.3282,-9.3267,-9.326,-9.3267,-9.3393,-9.3397,-9.3399,-9.3401,0,-9.2588,-9.2592,-9.2668,-9.275,-9.2813,-9.2875,-9.2932,-9.2977,-9.298,-9.3042,-9.3132,-9.3185,-9.3288,-9.337,-9.3444,-9.3469,-9.3435,-9.3433,-9.3458,-9.3459,-9.3454,-9.3455,-9.3142,-9.3424,-9.3421,-9.342,-9.3418,-9.3418,-9.2755,-9.283,-9.2886,-9.2973,-9.3018,-9.3074,-9.3145,-9.3169,-9.3245,-9.333,-9.3324,-9.3424,-9.3474,-9.3571,-9.3604,-9.368,-9.3642,-9.3679,-9.3687,-9.3695,-9.3703,-9.3448,-9.3693,-9.3693,-9.3692,-9.3692,-9.3691,0,-9.2983,-9.3019,-9.3101,-9.3185,-9.3254,-9.3224,-9.3288,-9.3346,-9.3435,-9.3488,-9.3556,-9.366,-9.3742,-9.377,-9.3849,-9.3905,-9.3891,-9.3925,-9.3917,-9.3923,-9.3734,-9.3703,-9.3935,-9.3935,-9.3935,-9.3935,-9.3935,-9.3935,-9.311,-9.3235,-9.3246,-9.3393,-9.3427,-9.3528,-9.3567,-9.3618,-9.366,-9.3779,-9.3849,-9.3869,-9.3911,-9.3994,-9.4067,-9.4074,-9.4102,-9.4142,-9.4141,-9.3962,-9.3937,-9.3913,-9.3883,-9.4149,-9.415,-9.4323,-9.4324,-9.4326]},{"header":{"parameterUnit":"m.s-1","parameterCategory":1,"la1":30.2991,"la2":30.254,"lo1":-89.0895,"lo2":-89.0444,"dy":0.0017,"dx":0.0017,"nx":28,"ny":28,"refTime":"2024-03-04T03:00:00:Z","depth":0,"parameterNumber":3,"parameterNumberName":"V-component_of_WINDS"},"data":[0,0,0,0,0,0,0,0,0,0,0,0,0,0,0,0,0,0,0,0,0,0,0,0,0,0,0,0,0,0,0,0,0,0,0,0,0,0,0,0,0,0,0,0,0,0,0,0,0,0,0,0,0,0,0,0,0,0,0.741,0.7409,0,0.7389,0.7388,0.7388,0.7359,0.7359,0.7358,0.7358,0.7338,0.7338,0.7338,0,0,0,0,0,0,0,0,0,0,0,0,0,0.7429,0.7429,0.741,0.7409,0.7409,0.7389,0.7388,0.7388,0.7359,0.7359,0.7358,0.7358,0.7339,0.7338,0.7338,0,0,0,0,0,0,0,0,0,0,0,0,0,0.7416,0.7429,0.741,0.7392,0.739,0.7389,0.7388,0.7388,0.7359,0.7359,0.7358,0.7357,0.7339,0.7338,0.7338,0.7353,0,0,0.7338,0.7338,0,0,0,0,0,0,0,0,0.7416,0.7415,0.7395,0.7393,0.7391,0.7376,0.7388,0.7376,0.736,0.7371,0.7358,0.7357,0.7352,0.735,0.7348,0.7352,0.7351,0.7338,0.7338,0.7338,0.7338,0,0,0,0,0,0,0,0.7417,0.7416,0.7401,0.7395,0.7393,0.7387,0.7384,0.7386,0.7366,0.737,0.7368,0.7366,0.7351,0.7348,0.7348,0.7351,0.7338,0.7338,0.7338,0.7338,0.7368,0.7369,0,0,0,0,0,0,0.742,0.7417,0.7402,0.7401,0.7402,0.7387,0.7384,0.7382,0.7366,0.7363,0.7367,0.7365,0.7349,0.7348,0.7347,0.7364,0.7338,0.7338,0.7338,0.7367,0.7368,0.7369,0,0,0,0,0,0,0.7421,0.7419,0.7403,0.7408,0.7406,0.7387,0.7385,0.7382,0.7379,0.7363,0.736,0.7368,0.7348,0.7347,0.7352,0.7363,0.7338,0.7338,0.7366,0.7368,0.7369,0.7398,0,0,0,0,0,0,0.7422,0.742,0.7424,0.7408,0.7405,0.7407,0.7386,0.7382,0.7379,0.7376,0.7363,0.736,0.7348,0.7352,0.7352,0.7362,0.7338,0.7365,0.7367,0.7368,0.7396,0.74,0.7403,0,0,0,0,0,0.7422,0.7432,0.7424,0.7422,0.741,0.7408,0.7406,0.739,0.738,0.7385,0.7375,0.7361,0.7362,0.7353,0.7352,0.7363,0.7364,0.7366,0.7368,0.7394,0.7399,0.7403,0,0,0,0,0,0,0.7449,0.743,0.742,0.7425,0.7419,0.7403,0.7408,0.7396,0.7392,0.739,0.7372,0.7369,0.7377,0.737,0.7361,0.7378,0.7361,0.7363,0.7381,0.7386,0.739,0.7391,0.7338,0,0,0,0,0,0.7456,0.7455,0.7438,0.7445,0.7442,0.7426,0.7424,0.7413,0.7405,0.7402,0.7393,0.7386,0.7386,0.7385,0.7384,0.7395,0.7393,0.7403,0.7406,0.741,0.7411,0.742,0.7424,0.7376,0.7375,0.7375,0,0,0.7469,0.7459,0.7459,0.745,0.7443,0.7444,0.7423,0.7424,0.7425,0.7403,0.7407,0.74,0.7392,0.7401,0.7405,0.7396,0.7425,0.7412,0.7415,0.7415,0.7422,0.7427,0.7431,0.7377,0.7377,0.7376,0,0,0.7494,0.7486,0.7491,0.7485,0.7475,0.7465,0.7467,0.7453,0.7448,0.7452,0.7436,0.7438,0.7436,0.7432,0.7429,0.7457,0.7445,0.7457,0.7477,0.7485,0.7489,0.7492,0.7504,0.7508,0.7459,0.7459,0.7459,0,0.7513,0.7512,0.7495,0.7498,0.7496,0.7476,0.7482,0.7478,0.7468,0.7468,0.7458,0.7458,0.7451,0.746,0.7467,0.7465,0.7468,0.7458,0.749,0.7493,0.7496,0.7506,0.7511,0.7461,0.746,0.746,0.746,0,0.7536,0.7536,0.7542,0.7533,0.7531,0.7536,0.7522,0.7523,0.7513,0.7504,0.751,0.7502,0.7499,0.7501,0.7491,0.7509,0.7504,0.7493,0.7476,0.7502,0.7512,0.7516,0.7463,0.7462,0.7462,0.7461,0,0,0.7575,0.7559,0.7562,0.7559,0.7548,0.7549,0.7554,0.7551,0.7553,0.7548,0.7553,0.7554,0.7544,0.7541,0.7531,0.7538,0.7563,0.7526,0.7525,0.7534,0.7585,0.7595,0.76,0.7555,0.7556,0.7556,0.7587,0,0.7598,0.7605,0.7592,0.7602,0.7603,0.7586,0.7591,0.7586,0.7579,0.7581,0.7574,0.7575,0.7561,0.7559,0.7566,0.7558,0.7573,0.7556,0.7561,0.7561,0.7564,0.7604,0.7614,0.7642,0.759,0.7591,0.7591,0,0.7625,0.7623,0.7633,0.7625,0.7625,0.7629,0.7627,0.7628,0.7624,0.7618,0.7617,0.7606,0.7613,0.7597,0.7607,0.7596,0.7597,0.7595,0.7596,0.7596,0.7578,0.7607,0.7651,0.7656,0.7597,0.7596,0.7596,0,0.7655,0.7653,0.766,0.7658,0.7648,0.7652,0.7648,0.7643,0.7643,0.7642,0.7642,0.7642,0.7642,0.7644,0.7633,0.7623,0.7646,0.7628,0.7643,0.7643,0.7648,0.7648,0.7695,0.7649,0.7648,0.7648,0.7648,0,0.7682,0.769,0.7673,0.7678,0.7687,0.7673,0.7683,0.7677,0.7673,0.7678,0.7663,0.7668,0.7654,0.7658,0.765,0.7661,0.7661,0.7659,0.7656,0.766,0.7661,0.7661,0.7659,0.7649,0.7649,0.7649,0.7649,0,0.7715,0.7705,0.7711,0.7702,0.77,0.7707,0.77,0.7705,0.7698,0.7704,0.7705,0.7695,0.7699,0.7689,0.7692,0.7687,0.7703,0.7697,0.7704,0.7703,0.7718,0.7718,0.7767,0.7774,0.7723,0.7723,0.7724,0,0.7733,0.7739,0.7731,0.7733,0.773,0.7733,0.7734,0.7722,0.7723,0.772,0.7726,0.7729,0.7731,0.7739,0.7733,0.7736,0.7731,0.7748,0.7731,0.7735,0.7733,0.7733,0.7734,0.7751,0.7752,0.7752,0.7753,0,0.7768,0.7763,0.7764,0.7764,0.7766,0.7765,0.7764,0.7767,0.7754,0.7757,0.7762,0.7763,0.7767,0.7771,0.7773,0.7771,0.7761,0.7759,0.7762,0.7766,0.7771,0.777,0.7715,0.7757,0.7757,0.7757,0.7756,0.7756,0.7795,0.78,0.7796,0.7799,0.7797,0.7797,0.7802,0.7796,0.7799,0.7801,0.7795,0.7801,0.78,0.7801,0.7801,0.7807,0.7799,0.7804,0.7806,0.7807,0.7811,0.777,0.7807,0.7807,0.7807,0.7807,0.7807,0,0.7829,0.7827,0.7829,0.7829,0.7832,0.7822,0.7821,0.7825,0.783,0.7829,0.7832,0.7839,0.7844,0.7839,0.7843,0.785,0.7845,0.7851,0.7851,0.7851,0.7816,0.7813,0.7855,0.7855,0.7855,0.7855,0.7855,0.7855,0.7848,0.7857,0.7852,0.7862,0.7859,0.7865,0.7866,0.7867,0.7867,0.7875,0.7879,0.7876,0.7874,0.7879,0.7884,0.7882,0.7885,0.7893,0.7891,0.7858,0.7853,0.7849,0.7846,0.7894,0.7894,0.7925,0.7926,0.7926]}]]